owner,sensor,date,latitude,longitude,vertical_datum,wind_speed,wind_to_direction,wind_speed_of_gust,qcFlag 
ADCP,ioos:station:wmo:42390:1,2012-12-01T00:30:00Z,26.1290,-94.8980,1.0,7.9,108.0,99.0,'11111222,11111222,11144222' 
ADCP,ioos:station:wmo:42390:1,2012-12-01T01:30:00Z,26.1290,-94.8980,1.0,8.1,109.0,99.0,'11111222,11111222,11144222' 
ADCP,ioos:station:wmo:42390:1,2012-12-01T02:30:00Z,26.1290,-94.8980,1.0,8.4,113.0,99.0,'11111222,11111222,11144222' 
ADCP,ioos:station:wmo:42390:1,2012-12-01T03:30:00Z,26.1290,-94.8980,1.0,8.3,119.0,99.0,'11111222,11111222,11144222' 
ADCP,ioos:station:wmo:42390:1,2012-12-01T04:30:00Z,26.1290,-94.8980,1.0,8.8,122.0,99.0,'11111222,11111222,11144222' 
ADCP,ioos:station:wmo:42390:1,2012-12-01T05:30:00Z,26.1290,-94.8980,1.0,9.1,124.0,99.0,'11111222,11111222,11144222' 
ADCP,ioos:station:wmo:42390:1,2012-12-01T06:30:00Z,26.1290,-94.8980,1.0,8.8,127.0,99.0,'11111222,11111222,11144222' 
ADCP,ioos:station:wmo:42390:1,2012-12-01T07:30:00Z,26.1290,-94.8980,1.0,9.0,128.0,99.0,'11111222,11111222,11144222' 
ADCP,ioos:station:wmo:42390:1,2012-12-01T08:30:00Z,26.1290,-94.8980,1.0,8.4,124.0,99.0,'11111222,11111222,11144222' 
ADCP,ioos:station:wmo:42390:1,2012-12-01T09:30:00Z,26.1290,-94.8980,1.0,7.3,132.0,99.0,'11111222,11111222,11144222' 
ADCP,ioos:station:wmo:42390:1,2012-12-01T10:30:00Z,26.1290,-94.8980,1.0,6.8,135.0,99.0,'11111222,11111222,11144222' 
ADCP,ioos:station:wmo:42390:1,2012-12-01T11:30:00Z,26.1290,-94.8980,1.0,6.1,139.0,99.0,'11111222,11111222,11144222' 
ADCP,ioos:station:wmo:42390:1,2012-12-01T12:30:00Z,26.1290,-94.8980,1.0,5.4,140.0,99.0,'11111222,11111222,11144222' 
ADCP,ioos:station:wmo:42390:1,2012-12-01T13:30:00Z,26.1290,-94.8980,1.0,5.6,138.0,99.0,'11111222,11111222,11144222' 
ADCP,ioos:station:wmo:42390:1,2012-12-01T14:30:00Z,26.1290,-94.8980,1.0,5.1,139.0,99.0,'11111222,11111222,11144222' 
ADCP,ioos:station:wmo:42390:1,2012-12-01T15:30:00Z,26.1290,-94.8980,1.0,5.4,139.0,99.0,'11111222,11111222,11144222' 
ADCP,ioos:station:wmo:42390:1,2012-12-01T16:30:00Z,26.1290,-94.8980,1.0,6.0,140.0,99.0,'11111222,11111222,11144222' 
ADCP,ioos:station:wmo:42390:1,2012-12-01T17:30:00Z,26.1290,-94.8980,1.0,5.9,134.0,99.0,'11111222,11111222,11144222' 
ADCP,ioos:station:wmo:42390:1,2012-12-01T18:30:00Z,26.1290,-94.8980,1.0,5.4,134.0,99.0,'11111222,11111222,11144222' 
ADCP,ioos:station:wmo:42390:1,2012-12-01T19:30:00Z,26.1290,-94.8980,1.0,5.4,133.0,99.0,'11111222,11111222,11144222' 
ADCP,ioos:station:wmo:42390:1,2012-12-01T20:30:00Z,26.1290,-94.8980,1.0,5.3,130.0,99.0,'11111222,11111222,11144222' 
ADCP,ioos:station:wmo:42390:1,2012-12-01T21:30:00Z,26.1290,-94.8980,1.0,5.4,128.0,99.0,'11111222,11111222,11144222' 
ADCP,ioos:station:wmo:42390:1,2012-12-01T22:30:00Z,26.1290,-94.8980,1.0,5.6,136.0,99.0,'11111222,11111222,11144222' 
ADCP,ioos:station:wmo:42390:1,2012-12-02T00:30:00Z,26.1290,-94.8980,1.0,5.6,132.0,99.0,'11111222,11111222,11144222' 
ADCP,ioos:station:wmo:42390:1,2012-12-02T01:30:00Z,26.1290,-94.8980,1.0,6.0,122.0,99.0,'11111222,11111222,11144222' 
ADCP,ioos:station:wmo:42390:1,2012-12-02T02:30:00Z,26.1290,-94.8980,1.0,6.7,125.0,99.0,'11111222,11111222,11144222' 
ADCP,ioos:station:wmo:42390:1,2012-12-02T03:30:00Z,26.1290,-94.8980,1.0,6.5,128.0,99.0,'11111222,11111222,11144222' 
ADCP,ioos:station:wmo:42390:1,2012-12-02T04:30:00Z,26.1290,-94.8980,1.0,6.9,131.0,99.0,'11111222,11111222,11144222' 
ADCP,ioos:station:wmo:42390:1,2012-12-02T05:30:00Z,26.1290,-94.8980,1.0,7.4,134.0,99.0,'11111222,11111222,11144222' 
ADCP,ioos:station:wmo:42390:1,2012-12-02T06:30:00Z,26.1290,-94.8980,1.0,7.4,138.0,99.0,'11111222,11111222,11144222' 
ADCP,ioos:station:wmo:42390:1,2012-12-02T07:30:00Z,26.1290,-94.8980,1.0,6.8,140.0,99.0,'11111222,11111222,11144222' 
ADCP,ioos:station:wmo:42390:1,2012-12-02T08:30:00Z,26.1290,-94.8980,1.0,5.8,139.0,99.0,'11111222,11111222,11144222' 
ADCP,ioos:station:wmo:42390:1,2012-12-02T09:30:00Z,26.1290,-94.8980,1.0,5.3,139.0,99.0,'11111222,11111222,11144222' 
ADCP,ioos:station:wmo:42390:1,2012-12-02T10:30:00Z,26.1290,-94.8980,1.0,5.0,133.0,99.0,'11111222,11111222,11144222' 
ADCP,ioos:station:wmo:42390:1,2012-12-02T11:30:00Z,26.1290,-94.8980,1.0,6.6,125.0,99.0,'11111222,11111222,11144222' 
ADCP,ioos:station:wmo:42390:1,2012-12-02T12:30:00Z,26.1290,-94.8980,1.0,7.0,136.0,99.0,'11111222,11111222,11144222' 
ADCP,ioos:station:wmo:42390:1,2012-12-02T13:30:00Z,26.1290,-94.8980,1.0,6.3,134.0,99.0,'11111222,11111222,11144222' 
ADCP,ioos:station:wmo:42390:1,2012-12-02T14:30:00Z,26.1290,-94.8980,1.0,5.5,133.0,99.0,'11111222,11111222,11144222' 
ADCP,ioos:station:wmo:42390:1,2012-12-02T15:30:00Z,26.1290,-94.8980,1.0,5.0,128.0,99.0,'11111222,11111222,11144222' 
ADCP,ioos:station:wmo:42390:1,2012-12-02T16:30:00Z,26.1290,-94.8980,1.0,5.6,120.0,99.0,'11111222,11111222,11144222' 
ADCP,ioos:station:wmo:42390:1,2012-12-02T17:30:00Z,26.1290,-94.8980,1.0,4.6,111.0,99.0,'11111222,11111222,11144222' 
ADCP,ioos:station:wmo:42390:1,2012-12-02T18:30:00Z,26.1290,-94.8980,1.0,4.8,109.0,99.0,'11111222,11111222,11144222' 
ADCP,ioos:station:wmo:42390:1,2012-12-02T19:30:00Z,26.1290,-94.8980,1.0,4.4,110.0,99.0,'11111222,11111222,11144222' 
ADCP,ioos:station:wmo:42390:1,2012-12-02T20:30:00Z,26.1290,-94.8980,1.0,6.7,100.0,99.0,'11111222,11111222,11144222' 
ADCP,ioos:station:wmo:42390:1,2012-12-02T21:30:00Z,26.1290,-94.8980,1.0,5.9,92.0,99.0,'11111222,11111222,11144222' 
ADCP,ioos:station:wmo:42390:1,2012-12-02T22:30:00Z,26.1290,-94.8980,1.0,3.2,96.0,99.0,'11111222,11111222,11144222' 
ADCP,ioos:station:wmo:42390:1,2012-12-02T23:30:00Z,26.1290,-94.8980,1.0,3.8,128.0,99.0,'11111222,11111222,11144222' 
ADCP,ioos:station:wmo:42390:1,2012-12-03T00:30:00Z,26.1290,-94.8980,1.0,5.1,124.0,99.0,'11111222,11111222,11144222' 
ADCP,ioos:station:wmo:42390:1,2012-12-03T01:30:00Z,26.1290,-94.8980,1.0,5.2,123.0,99.0,'11111222,11111222,11144222' 
ADCP,ioos:station:wmo:42390:1,2012-12-03T02:30:00Z,26.1290,-94.8980,1.0,7.0,123.0,99.0,'11111222,11111222,11144222' 
ADCP,ioos:station:wmo:42390:1,2012-12-03T03:30:00Z,26.1290,-94.8980,1.0,6.8,138.0,99.0,'11111222,11111222,11144222' 
ADCP,ioos:station:wmo:42390:1,2012-12-03T04:30:00Z,26.1290,-94.8980,1.0,6.7,142.0,99.0,'11111222,11111222,11144222' 
ADCP,ioos:station:wmo:42390:1,2012-12-03T05:30:00Z,26.1290,-94.8980,1.0,6.4,144.0,99.0,'11111222,11111222,11144222' 
ADCP,ioos:station:wmo:42390:1,2012-12-03T06:30:00Z,26.1290,-94.8980,1.0,6.6,146.0,99.0,'11111222,11111222,11144222' 
ADCP,ioos:station:wmo:42390:1,2012-12-03T07:30:00Z,26.1290,-94.8980,1.0,5.8,149.0,99.0,'11111222,11111222,11144222' 
ADCP,ioos:station:wmo:42390:1,2012-12-03T08:30:00Z,26.1290,-94.8980,1.0,5.8,151.0,99.0,'11111222,11111222,11144222' 
ADCP,ioos:station:wmo:42390:1,2012-12-03T09:30:00Z,26.1290,-94.8980,1.0,6.0,160.0,99.0,'11111222,11111222,11144222' 
ADCP,ioos:station:wmo:42390:1,2012-12-03T10:30:00Z,26.1290,-94.8980,1.0,6.0,162.0,99.0,'11111222,11111222,11144222' 
ADCP,ioos:station:wmo:42390:1,2012-12-03T11:30:00Z,26.1290,-94.8980,1.0,5.8,161.0,99.0,'11111222,11111222,11144222' 
ADCP,ioos:station:wmo:42390:1,2012-12-03T12:30:00Z,26.1290,-94.8980,1.0,4.8,169.0,99.0,'11111222,11111222,11144222' 
ADCP,ioos:station:wmo:42390:1,2012-12-03T13:30:00Z,26.1290,-94.8980,1.0,4.1,175.0,99.0,'11111222,11111222,11144222' 
ADCP,ioos:station:wmo:42390:1,2012-12-03T14:30:00Z,26.1290,-94.8980,1.0,4.5,177.0,99.0,'11111222,11111222,11144222' 
ADCP,ioos:station:wmo:42390:1,2012-12-03T15:30:00Z,26.1290,-94.8980,1.0,4.6,170.0,99.0,'11111222,11111222,11144222' 
ADCP,ioos:station:wmo:42390:1,2012-12-03T16:30:00Z,26.1290,-94.8980,1.0,4.7,160.0,99.0,'11111222,11111222,11144222' 
ADCP,ioos:station:wmo:42390:1,2012-12-03T17:30:00Z,26.1290,-94.8980,1.0,5.5,159.0,99.0,'11111222,11111222,11144222' 
ADCP,ioos:station:wmo:42390:1,2012-12-03T18:30:00Z,26.1290,-94.8980,1.0,5.1,155.0,99.0,'11111222,11111222,11144222' 
ADCP,ioos:station:wmo:42390:1,2012-12-03T19:30:00Z,26.1290,-94.8980,1.0,4.5,150.0,99.0,'11111222,11111222,11144222' 
ADCP,ioos:station:wmo:42390:1,2012-12-03T20:30:00Z,26.1290,-94.8980,1.0,4.8,144.0,99.0,'11111222,11111222,11144222' 
ADCP,ioos:station:wmo:42390:1,2012-12-03T21:30:00Z,26.1290,-94.8980,1.0,5.5,146.0,99.0,'11111222,11111222,11144222' 
ADCP,ioos:station:wmo:42390:1,2012-12-03T22:30:00Z,26.1290,-94.8980,1.0,4.9,150.0,99.0,'11111222,11111222,11144222' 
ADCP,ioos:station:wmo:42390:1,2012-12-03T23:30:00Z,26.1290,-94.8980,1.0,6.1,152.0,99.0,'11111222,11111222,11144222' 
ADCP,ioos:station:wmo:42390:1,2012-12-04T00:30:00Z,26.1290,-94.8980,1.0,5.9,153.0,99.0,'11111222,11111222,11144222' 
ADCP,ioos:station:wmo:42390:1,2012-12-04T01:30:00Z,26.1290,-94.8980,1.0,6.2,143.0,99.0,'11111222,11111222,11144222' 
ADCP,ioos:station:wmo:42390:1,2012-12-04T02:30:00Z,26.1290,-94.8980,1.0,7.3,140.0,99.0,'11111222,11111222,11144222' 
ADCP,ioos:station:wmo:42390:1,2012-12-04T03:30:00Z,26.1290,-94.8980,1.0,9.0,139.0,99.0,'11111222,11111222,11144222' 
ADCP,ioos:station:wmo:42390:1,2012-12-04T04:30:00Z,26.1290,-94.8980,1.0,8.7,140.0,99.0,'11111222,11111222,11144222' 
ADCP,ioos:station:wmo:42390:1,2012-12-04T05:30:00Z,26.1290,-94.8980,1.0,8.7,138.0,99.0,'11111222,11111222,11144222' 
ADCP,ioos:station:wmo:42390:1,2012-12-04T06:30:00Z,26.1290,-94.8980,1.0,8.3,143.0,99.0,'11111222,11111222,11144222' 
ADCP,ioos:station:wmo:42390:1,2012-12-04T07:30:00Z,26.1290,-94.8980,1.0,8.5,147.0,99.0,'11111222,11111222,11144222' 
ADCP,ioos:station:wmo:42390:1,2012-12-04T08:30:00Z,26.1290,-94.8980,1.0,8.1,150.0,99.0,'11111222,11111222,11144222' 
ADCP,ioos:station:wmo:42390:1,2012-12-04T09:30:00Z,26.1290,-94.8980,1.0,8.1,152.0,99.0,'11111222,11111222,11144222' 
ADCP,ioos:station:wmo:42390:1,2012-12-04T10:30:00Z,26.1290,-94.8980,1.0,7.8,148.0,99.0,'11111222,11111222,11144222' 
ADCP,ioos:station:wmo:42390:1,2012-12-04T11:30:00Z,26.1290,-94.8980,1.0,7.3,148.0,99.0,'11111222,11111222,11144222' 
ADCP,ioos:station:wmo:42390:1,2012-12-04T12:30:00Z,26.1290,-94.8980,1.0,6.4,146.0,99.0,'11111222,11111222,11144222' 
ADCP,ioos:station:wmo:42390:1,2012-12-04T13:30:00Z,26.1290,-94.8980,1.0,6.8,140.0,99.0,'11111222,11111222,11144222' 
ADCP,ioos:station:wmo:42390:1,2012-12-04T14:30:00Z,26.1290,-94.8980,1.0,7.0,140.0,99.0,'11111222,11111222,11144222' 
ADCP,ioos:station:wmo:42390:1,2012-12-04T15:30:00Z,26.1290,-94.8980,1.0,7.7,140.0,99.0,'11111222,11111222,11144222' 
ADCP,ioos:station:wmo:42390:1,2012-12-04T16:30:00Z,26.1290,-94.8980,1.0,99.0,137.0,99.0,'11144222,11111222,11144222' 
ADCP,ioos:station:wmo:42390:1,2012-12-04T17:30:00Z,26.1290,-94.8980,1.0,7.0,132.0,99.0,'11111222,11111222,11144222' 
ADCP,ioos:station:wmo:42390:1,2012-12-04T18:30:00Z,26.1290,-94.8980,1.0,6.4,134.0,99.0,'11111222,11111222,11144222' 
ADCP,ioos:station:wmo:42390:1,2012-12-04T19:30:00Z,26.1290,-94.8980,1.0,5.6,140.0,99.0,'11111222,11111222,11144222' 
ADCP,ioos:station:wmo:42390:1,2012-12-04T20:30:00Z,26.1290,-94.8980,1.0,4.9,146.0,99.0,'11111222,11111222,11144222' 
ADCP,ioos:station:wmo:42390:1,2012-12-04T21:30:00Z,26.1290,-94.8980,1.0,4.3,152.0,99.0,'11111222,11111222,11144222' 
ADCP,ioos:station:wmo:42390:1,2012-12-04T22:30:00Z,26.1290,-94.8980,1.0,3.8,159.0,99.0,'11111222,11111222,11144222' 
ADCP,ioos:station:wmo:42390:1,2012-12-04T23:30:00Z,26.1290,-94.8980,1.0,3.3,161.0,99.0,'11111222,11111222,11144222' 
ADCP,ioos:station:wmo:42390:1,2012-12-05T00:30:00Z,26.1290,-94.8980,1.0,2.2,168.0,99.0,'11111222,11111222,11144222' 
ADCP,ioos:station:wmo:42390:1,2012-12-05T01:30:00Z,26.1290,-94.8980,1.0,0.8,89.0,99.0,'11111222,11111222,11144222' 
ADCP,ioos:station:wmo:42390:1,2012-12-05T02:30:00Z,26.1290,-94.8980,1.0,1.8,159.0,99.0,'11111222,11111222,11144222' 
ADCP,ioos:station:wmo:42390:1,2012-12-05T03:30:00Z,26.1290,-94.8980,1.0,2.3,155.0,99.0,'11111222,11111222,11144222' 
ADCP,ioos:station:wmo:42390:1,2012-12-05T04:30:00Z,26.1290,-94.8980,1.0,2.1,142.0,99.0,'11111222,11111222,11144222' 
ADCP,ioos:station:wmo:42390:1,2012-12-05T05:30:00Z,26.1290,-94.8980,1.0,2.3,136.0,99.0,'11111222,11111222,11144222' 
ADCP,ioos:station:wmo:42390:1,2012-12-05T06:30:00Z,26.1290,-94.8980,1.0,3.1,125.0,99.0,'11111222,11111222,11144222' 
ADCP,ioos:station:wmo:42390:1,2012-12-05T07:30:00Z,26.1290,-94.8980,1.0,3.7,75.0,99.0,'11111222,11111222,11144222' 
ADCP,ioos:station:wmo:42390:1,2012-12-05T08:30:00Z,26.1290,-94.8980,1.0,10.5,50.0,99.0,'11111222,11111222,11144222' 
ADCP,ioos:station:wmo:42390:1,2012-12-05T09:30:00Z,26.1290,-94.8980,1.0,8.2,57.0,99.0,'11111222,11111222,11144222' 
ADCP,ioos:station:wmo:42390:1,2012-12-05T10:30:00Z,26.1290,-94.8980,1.0,7.0,86.0,99.0,'11111222,11111222,11144222' 
ADCP,ioos:station:wmo:42390:1,2012-12-05T11:30:00Z,26.1290,-94.8980,1.0,5.5,104.0,99.0,'11111222,11111222,11144222' 
ADCP,ioos:station:wmo:42390:1,2012-12-05T12:30:00Z,26.1290,-94.8980,1.0,5.0,84.0,99.0,'11111222,11111222,11144222' 
ADCP,ioos:station:wmo:42390:1,2012-12-05T13:30:00Z,26.1290,-94.8980,1.0,4.7,69.0,99.0,'11111222,11111222,11144222' 
ADCP,ioos:station:wmo:42390:1,2012-12-05T14:30:00Z,26.1290,-94.8980,1.0,3.4,60.0,99.0,'11111222,11111222,11144222' 
ADCP,ioos:station:wmo:42390:1,2012-12-05T15:30:00Z,26.1290,-94.8980,1.0,3.3,52.0,99.0,'11111222,11111222,11144222' 
ADCP,ioos:station:wmo:42390:1,2012-12-05T16:30:00Z,26.1290,-94.8980,1.0,2.8,48.0,99.0,'11111222,11111222,11144222' 
ADCP,ioos:station:wmo:42390:1,2012-12-05T17:30:00Z,26.1290,-94.8980,1.0,3.4,21.0,99.0,'11111222,11111222,11144222' 
ADCP,ioos:station:wmo:42390:1,2012-12-05T18:30:00Z,26.1290,-94.8980,1.0,99.0,291.0,99.0,'11144222,11111222,11144222' 
ADCP,ioos:station:wmo:42390:1,2012-12-05T19:30:00Z,26.1290,-94.8980,1.0,99.0,84.0,99.0,'11144222,11111222,11144222' 
ADCP,ioos:station:wmo:42390:1,2012-12-05T20:30:00Z,26.1290,-94.8980,1.0,11.4,98.0,99.0,'11111222,11111222,11144222' 
ADCP,ioos:station:wmo:42390:1,2012-12-05T21:30:00Z,26.1290,-94.8980,1.0,4.2,12.0,99.0,'11111222,11111222,11144222' 
ADCP,ioos:station:wmo:42390:1,2012-12-05T22:30:00Z,26.1290,-94.8980,1.0,5.9,40.0,99.0,'11111222,11111222,11144222' 
ADCP,ioos:station:wmo:42390:1,2012-12-05T23:30:00Z,26.1290,-94.8980,1.0,3.0,8.0,99.0,'11111222,11111222,11144222' 
ADCP,ioos:station:wmo:42390:1,2012-12-06T00:30:00Z,26.1290,-94.8980,1.0,3.0,17.0,99.0,'11111222,11111222,11144222' 
ADCP,ioos:station:wmo:42390:1,2012-12-06T01:30:00Z,26.1290,-94.8980,1.0,3.4,21.0,99.0,'11111222,11111222,11144222' 
ADCP,ioos:station:wmo:42390:1,2012-12-06T02:30:00Z,26.1290,-94.8980,1.0,99.0,178.0,99.0,'11144222,11111222,11144222' 
ADCP,ioos:station:wmo:42390:1,2012-12-06T03:30:00Z,26.1290,-94.8980,1.0,9.3,69.0,99.0,'11111222,11111222,11144222' 
ADCP,ioos:station:wmo:42390:1,2012-12-06T04:30:00Z,26.1290,-94.8980,1.0,14.6,244.0,99.0,'11111222,11111222,11144222' 
ADCP,ioos:station:wmo:42390:1,2012-12-06T05:30:00Z,26.1290,-94.8980,1.0,3.3,18.0,99.0,'11111222,11111222,11144222' 
ADCP,ioos:station:wmo:42390:1,2012-12-06T06:30:00Z,26.1290,-94.8980,1.0,3.0,25.0,99.0,'11111222,11111222,11144222' 
ADCP,ioos:station:wmo:42390:1,2012-12-06T07:30:00Z,26.1290,-94.8980,1.0,2.2,25.0,99.0,'11111222,11111222,11144222' 
ADCP,ioos:station:wmo:42390:1,2012-12-06T08:30:00Z,26.1290,-94.8980,1.0,0.2,4.0,99.0,'11111222,11111222,11144222' 
ADCP,ioos:station:wmo:42390:1,2012-12-06T09:30:00Z,26.1290,-94.8980,1.0,0.1,1.0,99.0,'11111222,11111222,11144222' 
ADCP,ioos:station:wmo:42390:1,2012-12-06T10:30:00Z,26.1290,-94.8980,1.0,0.0,0.0,99.0,'11111222,11111222,11144222' 
ADCP,ioos:station:wmo:42390:1,2012-12-06T11:30:00Z,26.1290,-94.8980,1.0,0.0,0.0,99.0,'11111222,11111222,11144222' 
ADCP,ioos:station:wmo:42390:1,2012-12-06T12:30:00Z,26.1290,-94.8980,1.0,2.2,31.0,99.0,'11111222,11111222,11144222' 
ADCP,ioos:station:wmo:42390:1,2012-12-06T13:30:00Z,26.1290,-94.8980,1.0,0.7,27.0,99.0,'11111222,11111222,11144222' 
ADCP,ioos:station:wmo:42390:1,2012-12-06T14:30:00Z,26.1290,-94.8980,1.0,0.1,6.0,99.0,'11111222,11111222,11144222' 
ADCP,ioos:station:wmo:42390:1,2012-12-06T15:30:00Z,26.1290,-94.8980,1.0,0.1,8.0,99.0,'11111222,11111222,11144222' 
ADCP,ioos:station:wmo:42390:1,2012-12-06T16:30:00Z,26.1290,-94.8980,1.0,0.5,41.0,99.0,'11111222,11111222,11144222' 
ADCP,ioos:station:wmo:42390:1,2012-12-06T17:30:00Z,26.1290,-94.8980,1.0,1.4,83.0,99.0,'11111222,11111222,11144222' 
ADCP,ioos:station:wmo:42390:1,2012-12-06T18:30:00Z,26.1290,-94.8980,1.0,2.5,110.0,99.0,'11111222,11111222,11144222' 
ADCP,ioos:station:wmo:42390:1,2012-12-06T19:30:00Z,26.1290,-94.8980,1.0,2.4,125.0,99.0,'11111222,11111222,11144222' 
ADCP,ioos:station:wmo:42390:1,2012-12-06T20:30:00Z,26.1290,-94.8980,1.0,2.3,162.0,99.0,'11111222,11111222,11144222' 
ADCP,ioos:station:wmo:42390:1,2012-12-06T21:30:00Z,26.1290,-94.8980,1.0,2.4,162.0,99.0,'11111222,11111222,11144222' 
ADCP,ioos:station:wmo:42390:1,2012-12-06T22:30:00Z,26.1290,-94.8980,1.0,2.5,155.0,99.0,'11111222,11111222,11144222' 
ADCP,ioos:station:wmo:42390:1,2012-12-06T23:30:00Z,26.1290,-94.8980,1.0,3.6,149.0,99.0,'11111222,11111222,11144222' 
ADCP,ioos:station:wmo:42390:1,2012-12-07T00:30:00Z,26.1290,-94.8980,1.0,3.4,144.0,99.0,'11111222,11111222,11144222' 
ADCP,ioos:station:wmo:42390:1,2012-12-07T01:30:00Z,26.1290,-94.8980,1.0,4.6,137.0,99.0,'11111222,11111222,11144222' 
ADCP,ioos:station:wmo:42390:1,2012-12-07T02:30:00Z,26.1290,-94.8980,1.0,5.7,133.0,99.0,'11111222,11111222,11144222' 
ADCP,ioos:station:wmo:42390:1,2012-12-07T03:30:00Z,26.1290,-94.8980,1.0,6.4,133.0,99.0,'11111222,11111222,11144222' 
ADCP,ioos:station:wmo:42390:1,2012-12-07T04:30:00Z,26.1290,-94.8980,1.0,6.9,141.0,99.0,'11111222,11111222,11144222' 
ADCP,ioos:station:wmo:42390:1,2012-12-07T05:30:00Z,26.1290,-94.8980,1.0,6.6,143.0,99.0,'11111222,11111222,11144222' 
ADCP,ioos:station:wmo:42390:1,2012-12-07T06:30:00Z,26.1290,-94.8980,1.0,6.2,144.0,99.0,'11111222,11111222,11144222' 
ADCP,ioos:station:wmo:42390:1,2012-12-07T07:30:00Z,26.1290,-94.8980,1.0,7.0,141.0,99.0,'11111222,11111222,11144222' 
ADCP,ioos:station:wmo:42390:1,2012-12-07T08:30:00Z,26.1290,-94.8980,1.0,7.9,141.0,99.0,'11111222,11111222,11144222' 
ADCP,ioos:station:wmo:42390:1,2012-12-07T09:30:00Z,26.1290,-94.8980,1.0,7.3,148.0,99.0,'11111222,11111222,11144222' 
ADCP,ioos:station:wmo:42390:1,2012-12-07T10:30:00Z,26.1290,-94.8980,1.0,7.4,145.0,99.0,'11111222,11111222,11144222' 
ADCP,ioos:station:wmo:42390:1,2012-12-07T11:30:00Z,26.1290,-94.8980,1.0,7.4,151.0,99.0,'11111222,11111222,11144222' 
ADCP,ioos:station:wmo:42390:1,2012-12-07T12:30:00Z,26.1290,-94.8980,1.0,99.0,150.0,99.0,'11144222,11111222,11144222' 
ADCP,ioos:station:wmo:42390:1,2012-12-07T13:30:00Z,26.1290,-94.8980,1.0,8.2,145.0,99.0,'11111222,11111222,11144222' 
ADCP,ioos:station:wmo:42390:1,2012-12-07T14:30:00Z,26.1290,-94.8980,1.0,7.9,147.0,99.0,'11111222,11111222,11144222' 
ADCP,ioos:station:wmo:42390:1,2012-12-07T15:30:00Z,26.1290,-94.8980,1.0,7.6,148.0,99.0,'11111222,11111222,11144222' 
ADCP,ioos:station:wmo:42390:1,2012-12-07T16:30:00Z,26.1290,-94.8980,1.0,8.0,147.0,99.0,'11111222,11111222,11144222' 
ADCP,ioos:station:wmo:42390:1,2012-12-07T17:30:00Z,26.1290,-94.8980,1.0,8.3,145.0,99.0,'11111222,11111222,11144222' 
ADCP,ioos:station:wmo:42390:1,2012-12-07T18:30:00Z,26.1290,-94.8980,1.0,8.5,151.0,99.0,'11111222,11111222,11144222' 
ADCP,ioos:station:wmo:42390:1,2012-12-07T19:30:00Z,26.1290,-94.8980,1.0,7.8,150.0,99.0,'11111222,11111222,11144222' 
ADCP,ioos:station:wmo:42390:1,2012-12-07T20:30:00Z,26.1290,-94.8980,1.0,6.8,150.0,99.0,'11111222,11111222,11144222' 
ADCP,ioos:station:wmo:42390:1,2012-12-07T21:30:00Z,26.1290,-94.8980,1.0,7.2,144.0,99.0,'11111222,11111222,11144222' 
ADCP,ioos:station:wmo:42390:1,2012-12-07T22:30:00Z,26.1290,-94.8980,1.0,9.2,140.0,99.0,'11111222,11111222,11144222' 
ADCP,ioos:station:wmo:42390:1,2012-12-07T23:30:00Z,26.1290,-94.8980,1.0,9.3,140.0,99.0,'11111222,11111222,11144222' 
ADCP,ioos:station:wmo:42390:1,2012-12-08T00:30:00Z,26.1290,-94.8980,1.0,9.4,140.0,99.0,'11111222,11111222,11144222' 
ADCP,ioos:station:wmo:42390:1,2012-12-08T01:30:00Z,26.1290,-94.8980,1.0,9.5,140.0,99.0,'11111222,11111222,11144222' 
ADCP,ioos:station:wmo:42390:1,2012-12-08T02:30:00Z,26.1290,-94.8980,1.0,10.4,140.0,99.0,'11111222,11111222,11144222' 
ADCP,ioos:station:wmo:42390:1,2012-12-08T03:30:00Z,26.1290,-94.8980,1.0,10.3,140.0,99.0,'11111222,11111222,11144222' 
ADCP,ioos:station:wmo:42390:1,2012-12-08T04:30:00Z,26.1290,-94.8980,1.0,10.3,140.0,99.0,'11111222,11111222,11144222' 
ADCP,ioos:station:wmo:42390:1,2012-12-08T05:30:00Z,26.1290,-94.8980,1.0,8.7,146.0,99.0,'11111222,11111222,11144222' 
ADCP,ioos:station:wmo:42390:1,2012-12-08T06:30:00Z,26.1290,-94.8980,1.0,8.6,144.0,99.0,'11111222,11111222,11144222' 
ADCP,ioos:station:wmo:42390:1,2012-12-08T07:30:00Z,26.1290,-94.8980,1.0,8.7,143.0,99.0,'11111222,11111222,11144222' 
ADCP,ioos:station:wmo:42390:1,2012-12-08T08:30:00Z,26.1290,-94.8980,1.0,7.0,153.0,99.0,'11111222,11111222,11144222' 
ADCP,ioos:station:wmo:42390:1,2012-12-08T09:30:00Z,26.1290,-94.8980,1.0,7.7,154.0,99.0,'11111222,11111222,11144222' 
ADCP,ioos:station:wmo:42390:1,2012-12-08T10:30:00Z,26.1290,-94.8980,1.0,7.0,154.0,99.0,'11111222,11111222,11144222' 
ADCP,ioos:station:wmo:42390:1,2012-12-08T11:30:00Z,26.1290,-94.8980,1.0,6.8,147.0,99.0,'11111222,11111222,11144222' 
ADCP,ioos:station:wmo:42390:1,2012-12-08T12:30:00Z,26.1290,-94.8980,1.0,6.6,149.0,99.0,'11111222,11111222,11144222' 
ADCP,ioos:station:wmo:42390:1,2012-12-08T13:30:00Z,26.1290,-94.8980,1.0,6.2,150.0,99.0,'11111222,11111222,11144222' 
ADCP,ioos:station:wmo:42390:1,2012-12-08T14:30:00Z,26.1290,-94.8980,1.0,5.5,150.0,99.0,'11111222,11111222,11144222' 
ADCP,ioos:station:wmo:42390:1,2012-12-08T16:30:00Z,26.1290,-94.8980,1.0,6.1,152.0,99.0,'11111222,11111222,11144222' 
ADCP,ioos:station:wmo:42390:1,2012-12-08T17:30:00Z,26.1290,-94.8980,1.0,6.6,154.0,99.0,'11111222,11111222,11144222' 
ADCP,ioos:station:wmo:42390:1,2012-12-08T18:30:00Z,26.1290,-94.8980,1.0,6.5,153.0,99.0,'11111222,11111222,11144222' 
ADCP,ioos:station:wmo:42390:1,2012-12-08T19:30:00Z,26.1290,-94.8980,1.0,6.3,157.0,99.0,'11111222,11111222,11144222' 
ADCP,ioos:station:wmo:42390:1,2012-12-08T20:30:00Z,26.1290,-94.8980,1.0,5.3,155.0,99.0,'11111222,11111222,11144222' 
ADCP,ioos:station:wmo:42390:1,2012-12-08T21:30:00Z,26.1290,-94.8980,1.0,5.0,152.0,99.0,'11111222,11111222,11144222' 
ADCP,ioos:station:wmo:42390:1,2012-12-08T22:30:00Z,26.1290,-94.8980,1.0,4.8,147.0,99.0,'11111222,11111222,11144222' 
ADCP,ioos:station:wmo:42390:1,2012-12-08T23:30:00Z,26.1290,-94.8980,1.0,4.5,143.0,99.0,'11111222,11111222,11144222' 
ADCP,ioos:station:wmo:42390:1,2012-12-09T00:30:00Z,26.1290,-94.8980,1.0,5.3,140.0,99.0,'11111222,11111222,11144222' 
ADCP,ioos:station:wmo:42390:1,2012-12-09T01:30:00Z,26.1290,-94.8980,1.0,5.1,145.0,99.0,'11111222,11111222,11144222' 
ADCP,ioos:station:wmo:42390:1,2012-12-09T02:30:00Z,26.1290,-94.8980,1.0,5.3,149.0,99.0,'11111222,11111222,11144222' 
ADCP,ioos:station:wmo:42390:1,2012-12-09T03:30:00Z,26.1290,-94.8980,1.0,6.0,149.0,99.0,'11111222,11111222,11144222' 
ADCP,ioos:station:wmo:42390:1,2012-12-09T04:30:00Z,26.1290,-94.8980,1.0,6.8,150.0,99.0,'11111222,11111222,11144222' 
ADCP,ioos:station:wmo:42390:1,2012-12-09T05:30:00Z,26.1290,-94.8980,1.0,7.3,151.0,99.0,'11111222,11111222,11144222' 
ADCP,ioos:station:wmo:42390:1,2012-12-09T06:30:00Z,26.1290,-94.8980,1.0,7.1,151.0,99.0,'11111222,11111222,11144222' 
ADCP,ioos:station:wmo:42390:1,2012-12-09T07:30:00Z,26.1290,-94.8980,1.0,7.4,156.0,99.0,'11111222,11111222,11144222' 
ADCP,ioos:station:wmo:42390:1,2012-12-09T08:30:00Z,26.1290,-94.8980,1.0,7.7,159.0,99.0,'11111222,11111222,11144222' 
ADCP,ioos:station:wmo:42390:1,2012-12-09T09:30:00Z,26.1290,-94.8980,1.0,7.9,159.0,99.0,'11111222,11111222,11144222' 
ADCP,ioos:station:wmo:42390:1,2012-12-09T10:30:00Z,26.1290,-94.8980,1.0,8.5,158.0,99.0,'11111222,11111222,11144222' 
ADCP,ioos:station:wmo:42390:1,2012-12-09T11:30:00Z,26.1290,-94.8980,1.0,9.1,158.0,99.0,'11111222,11111222,11144222' 
ADCP,ioos:station:wmo:42390:1,2012-12-09T12:30:00Z,26.1290,-94.8980,1.0,8.5,160.0,99.0,'11111222,11111222,11144222' 
ADCP,ioos:station:wmo:42390:1,2012-12-09T13:30:00Z,26.1290,-94.8980,1.0,8.3,157.0,99.0,'11111222,11111222,11144222' 